FW8431 Weather Reports


time (UTC)temp
C
wind
direction
speed
KPH
gust
KPH
rain 1hr
cm
rain 24hr
cm
rain mn
cm
humidity
%
barometer
mb
20260505111549 9 0 0.0 3.2 0.00 0.00 0.00 74 1017.3
20260505101555 9 0 0.0 0.0 0.00 0.00 0.00 73 1017.0
20260505100050 9 0 0.0 0.0 0.00 0.00 0.00 75 1017.1
20260505094601 9 0 0.0 0.0 0.00 0.00 0.00 75 1017.0
20260505093056 9 0 0.0 0.0 0.00 0.00 0.00 76 1016.9
20260505091551 9 0 0.0 0.0 0.00 0.00 0.00 75 1016.8
20260505090058 9 0 0.0 0.0 0.00 0.00 0.00 74 1016.8
20260505084553 10 0 0.0 0.0 0.00 0.00 0.00 75 1016.8
20260505083103 10 0 0.0 0.0 0.00 0.00 0.00 73 1016.8
20260505081553 10 0 0.0 0.0 0.00 0.00 0.00 73 1016.7
20260505080050 10 0 0.0 0.0 0.00 0.00 0.00 72 1016.6
20260505074549 10 0 0.0 0.0 0.00 0.00 0.00 71 1016.4
20260505073054 10 0 0.0 0.0 0.00 0.00 0.00 72 1016.4
20260505071554 10 0 0.0 0.0 0.00 0.00 0.00 72 1016.5
20260505064556 10 0 0.0 0.0 0.00 0.00 0.00 70 1016.5
20260505063052 10 0 0.0 0.0 0.00 0.00 0.00 71 1016.6
20260505061613 10 0 0.0 0.0 0.00 0.00 0.00 71 1016.6
20260505060058 10 0 0.0 0.0 0.00 0.00 0.00 71 1016.6
20260505054555 11 0 0.0 0.0 0.00 0.00 0.00 71 1016.8
20260505053052 11 0 0.0 0.0 0.00 0.00 0.00 70 1016.9
20260505051554 11 0 0.0 0.0 0.00 0.00 0.00 71 1017.0
20260505041555 11 0 0.0 0.0 0.00 0.00 0.00 72 1016.7
20260505034550 11 0 0.0 0.0 0.00 0.00 0.00 70 1016.9
20260505033102 12 0 0.0 0.0 0.00 0.00 0.00 70 1017.1
20260505031556 12 0 0.0 0.0 0.00 0.00 0.00 69 1017.3
20260505030055 12 0 0.0 0.0 0.00 0.00 0.00 69 1017.4
20260505024553 12 0 0.0 0.0 0.00 0.00 0.00 69 1017.3
20260505023054 12 0 1.6 3.2 0.00 0.00 0.00 69 1017.3
20260505021552 12 21 1.6 3.2 0.00 0.00 0.00 68 1017.3
20260505020055 13 21 1.6 4.8 0.00 0.00 0.00 67 1017.1
20260505014553 13 0 1.6 3.2 0.00 0.00 0.00 66 1016.8
20260505013058 14 21 0.0 3.2 0.00 0.00 0.00 65 1016.7
20260505011613 15 21 0.0 6.4 0.00 0.00 0.00 63 1016.5
20260505010106 15 352 0.0 3.2 0.00 0.00 0.00 61 1016.4
20260505004600 16 351 0.0 6.4 0.00 0.00 0.00 58 1016.2
20260505003054 16 348 0.0 3.2 0.00 0.00 0.00 56 1016.0
20260505001552 17 348 1.6 8.0 0.00 0.00 0.00 54 1015.8
20260505000059 18 0 3.2 14.5 0.00 0.00 0.00 51 1015.8
20260504234603 18 202 6.4 17.7 0.00 0.00 0.00 50 1015.7
20260504233058 19 210 6.4 17.7 0.00 0.00 0.00 48 1015.4
20260504231553 20 242 6.4 19.3 0.00 0.00 0.00 46 1015.3
20260504230056 20 248 4.8 8.0 0.00 0.00 0.00 47 1015.1
20260504224554 20 149 4.8 12.9 0.00 0.00 0.00 46 1015.1
20260504223055 20 118 3.2 12.9 0.00 0.00 0.00 45 1015.1
20260504221552 21 0 0.0 14.5 0.00 0.00 0.00 44 1015.2
20260504220104 21 188 4.8 17.7 0.00 0.00 0.00 42 1015.0
20260504214558 21 227 1.6 14.5 0.00 0.00 0.00 41 1015.1
20260504213110 21 127 8.0 16.1 0.00 0.00 0.00 38 1015.0
20260504211556 22 215 3.2 9.7 0.00 0.00 0.00 35 1015.2
20260504210050 22 0 3.2 16.1 0.00 0.00 0.00 37 1015.1
20260504204600 22 0 6.4 14.5 0.00 0.00 0.00 33 1015.3
20260504203058 22 142 3.2 16.1 0.00 0.00 0.00 38 1015.5
20260504201557 22 54 1.6 9.7 0.00 0.00 0.00 37 1015.6
20260504200056 21 106 6.4 14.5 0.00 0.00 0.00 39 1015.8
20260504194558 21 160 3.2 11.3 0.00 0.00 0.00 42 1015.9
20260504193109 21 175 1.6 11.3 0.00 0.00 0.00 43 1016.1
20260504191553 21 135 1.6 11.3 0.00 0.00 0.00 38 1016.3
20260504190059 21 168 3.2 14.5 0.00 0.00 0.00 43 1016.5
20260504184550 21 211 0.0 8.0 0.00 0.00 0.00 37 1016.6
20260504183058 21 0 3.2 9.7 0.00 0.00 0.00 35 1016.7
20260504181552 21 238 1.6 11.3 0.00 0.00 0.00 40 1017.0
20260504180130 20 235 3.2 16.1 0.00 0.00 0.00 43 1017.2
20260504174556 19 0 4.8 14.5 0.00 0.00 0.00 41 1017.4
20260504173054 19 121 3.2 12.9 0.00 0.00 0.00 42 1017.6
20260504171554 19 198 6.4 16.1 0.00 0.00 0.00 43 1017.7
20260504120104 2 0 0.0 0.0 0.00 0.00 0.00 91 1018.7